Theta_e
301 301 302 302 302 303 303 303 303 303 303 303 303 302 301 301 302 302 303 303 303 304 303 303 303 304 308 310 310 311 313 319 325 334 337 333 335 337 339 339 339 343 346 348 344 342 338 335 336 341 339 337 337 337
300 300 301 302 302 303 304 304 303 302 302 302 302 302 301 301 302 302 303 303 302 303 302 302 302 303 305 306 307 310 314 312 320 326 329 331 339 338 343 342 338 342 342 346 343 341 335 331 335 333 333 336 337 343
301 301 301 302 302 301 302 303 302 302 302 301 301 302 302 302 301 302 303 302 301 302 303 303 303 302 303 304 305 308 312 314 319 319 323 327 337 337 345 344 341 340 337 343 342 337 332 329 328 327 327 328 328 330
301 302 303 302 303 302 302 301 301 302 302 301 301 302 301 301 301 302 303 303 302 302 303 304 306 306 307 307 306 305 309 311 311 315 322 327 333 327 339 337 342 332 339 339 339 335 332 328 329 328 327 325 325 326
301 303 303 303 302 301 301 302 302 302 301 300 300 301 301 302 302 302 302 302 302 302 303 303 302 307 307 307 307 307 308 310 311 314 320 326 326 332 331 333 329 326 334 340 340 335 335 330 328 326 326 325 325 325
302 302 301 300 301 302 302 302 301 300 300 300 300 301 302 302 302 301 302 302 302 302 302 309 308 309 309 308 308 309 309 310 310 318 321 316 319 331 334 333 323 322 325 325 334 331 329 325 323 320 321 320 321 321
302 302 301 301 301 301 302 302 301 300 300 300 301 302 300 302 302 302 302 302 301 302 305 310 311 311 310 309 309 309 310 311 312 316 321 317 322 327 327 328 323 322 325 325 325 324 323 321 320 319 319 318 319 319
301 301 301 301 300 301 301 300 300 300 299 300 300 300 301 301 301 303 303 301 302 302 303 309 312 315 310 313 315 310 312 311 312 313 320 323 323 324 325 322 321 321 322 322 322 321 322 321 321 320 319 320 320 319
300 300 301 300 300 300 301 301 300 300 300 300 300 301 301 301 302 303 305 306 302 302 306 309 314 318 312 310 312 312 312 314 311 325 323 324 322 324 322 321 320 320 321 322 320 320 320 321 321 321 320 320 320 320
300 300 301 301 300 300 300 300 300 301 302 302 302 303 307 305 305 305 305 305 303 304 305 308 309 314 311 315 315 315 314 315 327 324 322 324 323 319 319 319 319 320 320 318 321 322 322 323 323 322 322 322 322 322
301 301 301 302 301 301 301 301 302 303 303 304 305 307 305 305 304 306 308 310 310 311 309 311 311 314 312 316 317 315 316 315 322 324 325 325 320 320 320 320 320 322 321 321 322 322 323 323 323 323 323 323 324 324
302 301 301 301 301 301 301 301 302 303 303 303 303 303 303 306 307 308 310 310 312 314 311 314 315 313 313 312 316 316 317 319 327 324 326 325 322 320 320 321 320 320 321 322 321 322 322 322 323 323 324 324 323 322
301 301 301 301 301 301 301 302 302 302 303 304 304 305 306 307 312 313 316 316 316 313 312 314 314 316 315 312 317 318 320 324 323 324 323 323 321 320 320 319 318 318 318 319 319 320 321 321 321 322 324 323 323 322
301 301 301 301 301 301 301 301 301 303 303 306 308 310 311 313 313 314 314 314 313 313 314 312 314 316 315 316 318 319 322 323 324 323 322 321 320 318 317 317 318 319 318 319 318 319 319 320 321 321 321 322 322 323
301 301 302 303 303 304 304 303 303 304 305 308 307 308 308 308 311 312 313 314 313 313 312 313 314 314 316 318 321 321 322 322 323 323 321 319 318 317 318 318 318 318 319 318 318 318 318 318 319 320 320 321 323 323
301 301 302 303 304 305 304 304 304 305 305 307 308 310 311 312 313 313 313 313 311 311 313 314 316 316 317 320 321 322 321 323 322 320 319 318 318 318 318 318 318 318 318 318 318 318 318 318 319 318 319 320 321 322
302 302 303 303 305 305 305 305 305 307 308 310 312 310 310 310 311 311 310 311 309 314 317 317 319 318 317 320 321 321 320 320 318 319 318 318 319 318 318 318 318 317 318 317 317 317 317 317 317 318 320 319 319 320
301 303 303 303 305 304 305 305 307 309 310 310 311 309 308 309 310 310 309 309 311 314 317 318 317 319 320 320 320 318 318 316 317 318 317 317 317 317 316 317 316 317 317 317 317 317 317 317 318 318 318 318 318 319
301 303 303 303 305 304 307 307 305 309 309 308 308 308 308 309 309 308 309 309 308 309 314 316 317 317 318 318 318 317 317 318 318 318 317 316 316 316 316 317 317 318 318 318 317 317 316 316 316 314 315 316 317 318
302 302 302 303 304 305 307 307 304 308 310 309 307 308 308 310 309 308 310 309 310 315 316 316 316 316 316 315 313 315 317 316 318 318 317 317 316 317 318 317 318 317 317 316 315 312 315 315 313 311 312 313 315 317
303 303 303 303 303 303 305 305 307 306 307 309 307 308 310 309 310 310 310 308 314 313 314 313 313 312 311 311 311 313 316 316 318 318 319 319 317 316 315 316 314 311 309 309 309 309 308 309 310 311 311 312 311 312
302 303 302 302 302 302 304 302 305 305 307 307 308 307 310 310 311 312 308 313 313 313 312 313 314 311 312 314 313 313 314 316 318 317 314 314 317 319 314 311 307 307 306 305 305 305 306 306 305 306 307 307 307 307
302 302 302 302 304 303 304 303 308 307 309 309 308 310 311 312 311 311 314 311 310 309 310 311 314 315 314 316 315 315 315 316 318 317 316 316 316 312 306 306 306 306 305 303 303 303 303 303 304 304 304 305 305 305
302 301 303 304 305 306 306 308 307 308 309 309 311 312 313 311 312 316 316 315 316 314 316 316 315 317 315 312 312 309 311 314 311 309 312 312 307 305 304 304 303 302 302 302 302 301 301 303 302 303 303 304 304 305
304 304 304 304 305 308 310 310 310 311 312 312 314 315 314 311 317 318 319 319 318 317 316 315 315 314 313 309 307 307 305 306 307 308 306 308 306 305 305 303 302 301 301 301 301 301 302 302 302 302 302 303 304 306
307 307 307 309 309 311 311 314 313 311 311 313 314 313 313 317 318 318 319 318 317 316 315 313 310 309 307 305 306 305 304 304 305 306 305 304 305 304 304 304 303 302 300 300 301 301 302 302 302 302 301 301 304 305
314 314 310 305 307 307 311 311 311 311 314 316 315 316 318 318 318 319 319 314 313 308 306 304 304 304 304 303 302 302 302 302 302 303 302 301 301 300 301 301 301 300 299 300 301 301 301 301 301 301 301 301 301 303
312 312 315 312 308 309 314 315 315 317 317 315 315 319 318 317 312 309 312 306 305 303 302 302 301 302 301 301 300 299 300 300 301 301 301 301 300 299 298 298 298 298 298 299 299 300 300 300 300 300 300 300 301 302
313 314 313 315 313 314 314 316 315 313 314 316 316 315 311 307 306 304 303 303 302 302 302 302 300 300 300 300 299 298 297 297 299 300 300 300 300 298 298 298 298 299 298 299 298 297 297 297 297 297 297 297 297 297
319 315 318 318 318 319 316 313 313 310 309 309 309 310 310 309 309 307 304 302 301 301 301 300 299 298 298 298 298 298 296 295 296 296 298 298 297 296 296 296 297 297 297 297 297 297 294 295 294 294 293 293 293 292
319 318 318 318 321 318 315 314 312 312 311 312 311 312 312 310 309 308 307 304 301 300 299 298 297 295 296 295 295 295 295 293 293 292 292 293 292 292 292 292 293 293 293 293 292 292 292 293 292 292 291 291 290 290
320 320 321 321 320 319 317 318 319 318 315 314 313 312 312 312 312 309 308 303 301 299 298 297 295 294 293 293 293 292 291 291 290 290 290 290 290 290 290 290 290 290 290 290 290 290 290 290 290 289 289 289 289 289
320 321 321 321 321 321 320 320 320 317 315 314 314 313 312 311 312 311 308 297 297 297 297 296 294 293 292 292 291 291 290 290 289 288 287 287 286 287 287 287 288 288 288 288 288 288 288 288 288 288 289 289 289 289
Wind_Speed
27 27 28 27 26 25 24 23 22 21 20 16 16 15 14 13 11 12 9 16 11 4 15 20 22 15 11 7 4 7 8 1 3 3 3 2 3 2 3 5 7 7 6 2 3 4 12 14 2 5 3 5 8 10
28 28 27 27 25 24 22 22 19 16 14 12 12 11 10 12 12 10 8 12 16 6 8 24 27 28 26 25 10 4 5 8 3 3 2 4 2 1 1 6 0 6 4 7 8 5 11 9 2 3 4 8 11 14
30 28 28 27 24 21 21 17 14 14 12 9 9 10 8 8 9 11 11 7 5 4 10 11 16 28 30 38 38 7 4 5 3 2 3 3 3 1 3 3 4 4 2 5 8 4 7 5 10 10 13 13 12 12
28 28 28 23 20 15 12 11 12 11 6 7 8 8 7 9 11 10 10 9 6 3 4 5 5 12 10 16 27 38 12 2 2 2 3 3 2 2 1 3 3 3 2 9 4 9 9 3 6 7 13 14 15 14
29 26 18 12 9 9 11 11 9 5 5 6 7 7 8 7 6 8 13 17 15 4 4 8 26 10 9 13 23 27 24 3 1 3 3 3 1 1 1 3 3 6 3 3 7 13 2 5 7 10 13 12 13 16
24 16 14 10 9 9 10 6 5 6 6 8 4 5 8 6 6 4 2 1 17 13 3 4 5 6 7 7 14 16 10 6 4 3 4 3 1 1 2 2 6 10 6 7 3 10 8 5 8 11 12 12 12 15
18 13 11 10 12 12 10 5 6 7 6 5 5 8 7 6 6 3 2 3 5 13 3 4 5 4 4 5 5 6 11 4 5 4 3 2 2 2 3 3 14 11 6 10 7 14 12 6 4 9 12 12 13 16
14 11 8 10 14 11 9 9 8 8 7 6 8 9 10 10 12 6 4 12 17 4 2 3 4 4 1 2 3 3 5 4 3 1 2 2 3 3 4 11 10 5 13 15 16 14 10 6 11 12 9 8 12 13
14 11 10 12 11 11 9 9 9 9 9 9 11 13 5 2 2 1 8 4 18 2 3 3 3 3 4 0 2 2 1 3 2 2 3 3 5 5 4 7 10 10 6 11 14 11 12 9 8 11 11 14 12 9
15 13 12 11 9 11 10 11 12 13 11 10 4 2 2 2 9 3 3 2 3 3 0 3 3 4 3 2 1 2 2 3 3 2 3 3 3 3 8 7 7 8 7 6 6 6 4 7 9 10 11 10 8 7
17 16 14 10 9 10 11 12 18 17 7 5 4 2 7 10 2 1 2 2 2 3 3 3 3 4 0 3 2 1 2 1 3 3 2 3 3 4 7 7 7 8 9 10 9 7 7 7 8 8 9 9 9 9
18 16 14 14 12 12 12 15 20 16 11 9 9 7 5 2 1 2 2 2 2 4 0 4 5 3 3 2 2 1 1 1 5 1 3 3 2 3 5 7 8 7 8 10 9 10 9 9 8 7 7 8 9 9
18 18 17 15 15 14 15 17 19 21 13 2 1 2 2 2 4 5 7 2 4 3 2 3 5 3 3 0 1 4 4 4 1 4 3 3 3 4 4 5 6 5 6 9 11 11 12 11 12 11 8 11 9 9
15 17 17 18 18 19 19 20 22 16 4 3 4 4 4 4 4 3 4 5 4 4 6 5 3 1 2 2 4 4 3 2 4 3 3 2 4 4 4 4 6 8 9 10 10 9 10 10 9 11 13 14 12 11
13 11 18 25 26 25 22 18 14 5 3 4 3 4 4 4 5 6 6 4 3 2 3 2 2 3 4 3 3 3 4 5 5 3 2 2 3 3 5 7 8 9 9 9 7 7 8 11 10 10 11 11 10 10
15 9 16 31 31 25 15 9 6 5 3 3 2 3 6 3 7 7 6 6 5 6 2 1 2 3 5 3 4 6 3 4 3 3 3 1 2 4 5 6 6 6 6 6 6 6 6 7 7 7 7 7 8 8
8 9 26 30 30 15 12 5 4 3 2 4 4 2 4 5 6 7 6 8 8 4 3 3 5 4 2 4 4 4 3 3 3 4 2 2 3 6 7 6 6 8 7 7 7 7 6 6 5 5 3 4 5 6
9 25 26 29 26 8 5 7 3 2 5 3 3 8 5 3 6 6 8 7 6 4 3 3 1 6 4 3 3 3 3 2 3 2 2 3 4 3 4 5 6 6 6 6 5 5 3 4 3 3 4 4 4 3
22 23 24 23 18 5 3 4 4 3 2 3 5 4 3 4 3 6 7 7 3 2 2 3 5 4 4 3 4 4 3 3 2 2 2 1 2 4 6 6 6 5 6 6 6 5 6 6 4 3 3 2 5 4
17 14 25 18 15 4 3 3 3 2 4 4 4 7 4 4 7 7 8 8 4 3 7 5 4 3 3 3 2 2 3 3 2 2 3 2 3 6 5 7 7 8 5 6 6 8 6 5 5 7 6 6 6 5
11 15 14 14 8 9 3 3 2 2 3 3 4 5 4 4 5 8 7 8 5 4 3 3 2 2 3 4 4 3 3 1 1 0 1 2 6 6 7 6 5 8 8 8 7 10 12 11 10 9 8 7 7 7
6 14 7 7 6 5 3 4 3 4 3 4 4 5 3 4 5 5 6 4 3 3 3 3 4 3 3 3 4 5 5 5 5 2 4 6 3 4 3 4 5 6 9 9 10 9 9 9 10 9 9 9 9 7
7 5 3 6 3 5 3 7 3 5 4 6 4 4 3 4 4 5 3 1 2 2 3 3 7 6 4 7 6 7 7 7 6 8 8 6 4 3 5 6 7 8 7 10 10 10 11 11 10 10 10 9 9 9
4 4 4 4 4 3 3 3 1 3 3 3 4 3 5 3 6 3 3 3 2 4 4 7 7 4 5 8 7 9 10 6 5 6 7 5 5 5 5 6 6 8 8 9 11 12 12 9 9 8 9 10 10 9
2 5 3 4 2 2 4 4 4 3 3 3 3 2 3 2 2 4 4 5 4 4 4 5 6 6 7 8 10 15 16 16 12 6 10 5 5 3 3 3 4 5 9 11 12 13 9 9 10 11 12 12 11 7
4 2 2 2 1 2 3 3 3 3 2 2 1 2 2 2 2 3 3 4 4 5 6 6 6 7 9 13 8 11 15 16 15 11 9 8 5 5 5 5 6 8 11 10 11 10 10 11 12 13 13 13 9 9
3 3 1 1 1 1 2 2 1 2 2 1 1 1 1 2 5 4 3 7 4 8 11 12 13 14 10 12 13 14 15 16 11 8 6 6 7 7 7 9 10 10 12 12 11 8 10 12 13 13 14 14 14 12
1 1 2 0 2 2 2 2 1 1 2 1 1 2 3 5 4 5 4 9 9 16 16 17 17 16 15 13 12 15 15 17 14 12 8 6 11 9 12 11 10 14 14 11 8 9 9 9 9 11 11 12 11 8
2 2 2 3 1 1 1 2 4 2 2 1 3 4 4 3 8 7 9 10 10 15 18 18 19 16 17 14 11 14 16 17 17 14 14 10 11 17 18 15 15 14 13 10 7 6 7 8 8 8 8 9 9 8
1 4 2 2 2 3 3 2 6 8 9 11 8 9 6 7 12 11 13 16 18 18 15 14 14 16 16 16 16 15 15 17 17 14 9 10 13 17 16 15 14 13 11 10 9 8 9 8 9 10 11 11 12 14
1 2 2 0 2 2 7 12 16 16 11 8 7 5 3 1 5 12 14 13 14 12 13 14 13 15 15 15 14 14 13 17 17 17 18 15 16 16 17 16 15 13 13 12 11 11 12 12 11 12 13 13 14 14
2 1 3 0 3 2 4 5 2 4 3 2 1 1 0 1 4 4 6 11 11 11 12 11 11 12 13 13 12 11 11 11 15 15 16 16 16 16 15 15 15 14 14 13 13 13 13 13 13 13 14 13 14 14
2 2 1 1 2 2 1 2 3 4 4 2 0 1 1 1 2 3 4 9 8 9 9 8 8 10 12 12 12 11 11 11 13 17 18 17 17 17 16 16 16 16 15 15 15 14 14 15 14 15 15 15 14 14
Wind_Direction
316 314 310 306 305 302 298 296 293 291 293 284 289 285 288 271 262 238 241 229 222 258 271 263 267 265 278 276 287 320 323 54 277 259 253 189 247 166 193 163 176 164 158 92 106 204 257 359 266 236 27 73 108 134
319 316 312 308 306 306 299 298 292 298 293 289 290 286 280 269 266 237 239 243 240 240 269 290 276 262 252 249 265 253 297 323 276 321 339 285 261 328 66 182 349 174 192 135 132 307 325 319 0 65 78 76 70 88
316 313 311 308 301 304 300 296 290 295 288 284 293 302 283 259 268 242 236 228 230 265 280 251 256 262 250 237 230 252 259 210 251 11 286 277 280 292 219 130 126 57 119 103 119 8 322 352 74 82 79 74 68 61
325 319 314 312 309 302 296 293 301 301 278 294 292 308 289 273 259 251 232 227 213 277 281 296 292 266 268 222 216 213 221 50 303 304 242 260 283 15 335 30 54 5 260 127 81 109 291 58 83 68 86 82 72 65
336 330 329 335 340 340 328 316 309 297 295 300 293 298 305 276 277 263 257 247 222 234 295 294 300 282 271 221 207 200 212 185 303 0 285 253 329 302 25 97 59 341 350 157 162 162 237 185 136 103 95 81 75 74
348 6 4 6 357 353 348 347 352 333 299 302 292 300 288 295 301 317 281 275 218 202 266 285 307 281 311 151 170 173 178 206 251 148 274 293 65 294 62 84 20 340 282 243 35 112 122 137 125 123 107 100 86 74
354 354 360 6 5 359 1 357 340 332 321 305 289 293 307 306 290 230 310 339 151 171 247 289 294 276 326 138 147 143 166 207 219 165 263 276 10 55 52 24 339 344 83 79 124 117 90 84 74 78 91 88 78 72
359 0 4 3 360 5 10 5 356 345 334 318 312 312 301 291 284 283 265 231 217 272 260 277 275 284 252 176 135 151 161 201 202 97 246 355 31 64 56 354 351 30 88 74 70 72 96 105 72 65 59 70 67 71
12 16 12 5 14 13 7 354 350 342 331 320 312 305 295 234 237 285 338 229 191 258 302 303 302 339 346 161 137 127 204 170 114 88 60 56 18 45 23 336 354 17 87 92 72 53 43 24 53 50 45 49 54 45
26 20 17 12 10 14 13 2 357 344 330 324 329 306 274 214 304 275 246 173 170 196 232 265 277 279 318 337 139 149 167 152 143 70 115 61 62 74 37 1 349 16 65 118 94 106 127 68 50 48 45 43 31 16
21 17 14 10 12 4 4 3 357 349 351 359 346 305 305 316 283 242 262 230 178 215 208 249 258 297 266 316 9 13 107 142 92 111 112 101 13 5 15 44 35 44 54 71 85 90 69 58 44 40 47 46 39 29
22 17 14 15 14 15 9 1 358 3 336 303 290 299 298 304 274 277 275 251 236 32 96 292 309 254 290 271 308 27 52 55 80 57 77 83 82 353 18 45 49 51 69 79 76 76 74 67 60 60 51 46 41 40
20 16 17 17 13 6 357 354 348 342 331 306 259 301 335 344 18 10 351 26 353 6 107 288 326 327 310 234 203 9 44 60 140 50 61 60 61 60 46 58 56 47 61 63 61 60 60 61 55 47 44 40 46 56
11 20 25 19 3 349 339 336 338 344 359 20 343 17 15 12 357 317 302 307 300 282 327 330 258 288 304 8 39 332 48 311 73 63 59 49 40 36 35 34 39 35 38 44 41 40 41 40 37 40 37 35 39 33
352 354 8 359 349 343 334 330 339 7 27 28 9 26 5 282 280 281 290 284 259 264 251 233 286 333 2 50 5 29 51 55 32 62 76 68 29 20 27 28 30 28 23 23 16 17 24 23 22 22 21 22 27 23
353 336 348 352 349 353 358 2 17 21 52 27 19 344 309 303 351 0 347 346 353 332 232 264 35 65 39 13 42 20 48 41 60 65 94 142 51 27 21 15 22 23 19 10 8 3 9 18 12 356 357 15 16 17
357 355 346 350 349 353 1 356 16 44 41 6 356 309 307 282 298 330 337 337 331 323 28 9 41 26 315 40 38 31 40 45 70 91 61 40 9 19 20 16 15 8 1 3 2 2 350 355 338 322 329 1 359 2
340 341 349 351 351 354 2 11 355 356 32 20 342 349 325 283 323 348 343 342 351 13 11 52 41 30 38 44 50 49 64 66 56 55 34 19 17 3 342 341 343 333 326 341 345 330 321 337 340 352 328 300 308 305
332 335 341 349 352 350 360 26 3 25 5 338 312 322 308 294 296 317 334 349 324 338 78 47 54 29 42 33 48 56 47 34 27 356 346 328 333 336 325 320 313 319 330 333 327 326 326 322 302 338 355 317 283 294
333 334 343 353 2 358 31 36 0 358 8 340 316 340 319 328 322 334 1 11 3 35 39 44 40 27 21 18 15 6 12 355 336 38 86 43 342 333 332 333 332 330 342 355 0 2 356 8 20 349 340 328 313 317
338 343 347 359 12 39 55 355 28 15 330 328 338 342 320 335 5 3 4 343 39 34 56 46 27 332 288 286 288 289 300 268 322 333 19 325 350 342 350 2 30 53 54 47 45 38 38 32 17 8 357 350 336 331
321 340 344 1 21 6 59 17 321 315 319 320 341 355 15 1 349 5 322 19 40 21 1 337 351 343 340 353 350 342 299 287 265 252 279 292 317 358 39 55 64 70 61 45 35 26 19 8 359 352 351 349 348 350
336 359 16 11 8 28 354 338 359 8 2 358 350 14 5 357 341 328 43 354 306 284 308 325 345 332 325 356 24 15 351 338 335 340 342 337 3 65 78 69 55 50 43 29 11 360 352 344 343 346 343 344 344 344
7 39 35 31 19 11 310 12 346 344 3 10 16 15 355 345 326 36 15 323 19 298 1 2 357 28 59 57 45 33 25 23 45 39 25 81 104 90 84 77 64 49 24 358 355 349 344 346 352 353 349 342 340 338
34 13 34 14 341 327 22 350 357 14 20 345 13 27 348 332 0 12 25 5 350 9 14 30 60 48 53 50 44 39 29 21 10 9 23 41 73 90 71 58 41 28 8 358 356 350 356 355 352 348 339 334 335 336
65 29 54 28 9 339 357 344 0 353 327 329 9 319 311 311 14 47 39 10 30 14 36 51 49 59 52 38 33 21 2 356 355 3 21 14 22 23 16 1 351 3 360 351 339 334 336 340 340 341 339 331 310 301
51 22 118 168 274 261 250 258 262 303 294 325 111 223 268 37 50 30 22 25 21 38 59 58 57 53 40 24 13 2 356 355 349 333 347 23 28 13 3 349 339 335 333 333 325 320 325 329 332 335 335 330 322 312
329 286 292 355 238 229 293 292 269 269 300 231 243 22 53 31 22 341 354 342 81 76 69 57 50 43 32 22 18 12 7 3 7 18 10 10 8 15 360 347 338 334 334 332 323 319 320 326 336 342 346 343 345 349
266 224 235 277 234 234 276 336 3 24 15 298 20 48 63 43 3 16 28 49 58 62 53 41 30 25 27 27 30 26 22 19 12 9 4 354 347 347 343 335 336 337 336 339 348 23 36 31 22 11 4 360 357 355
4 180 263 271 0 46 36 67 88 82 71 81 100 107 94 90 46 46 49 41 39 42 40 38 29 25 20 16 12 12 17 19 16 5 348 350 348 348 355 356 357 0 4 5 3 1 11 1 358 356 356 348 345 341
293 239 256 67 74 112 129 121 106 91 89 84 62 73 79 57 37 40 45 42 35 28 29 27 30 26 17 13 10 4 10 18 19 20 19 13 9 7 5 6 6 4 4 4 2 357 352 343 342 342 340 339 339 338
307 301 314 44 122 163 173 194 113 89 101 59 99 173 273 23 8 9 28 23 31 29 28 30 31 23 18 18 26 37 43 35 25 19 16 11 4 359 355 356 354 354 353 350 348 346 347 345 341 343 341 342 341 339
284 301 290 307 140 139 166 138 103 97 71 92 28 58 68 19 28 47 58 45 42 30 32 44 40 34 35 40 40 33 22 15 11 11 11 12 12 10 7 4 2 2 360 0 360 359 359 357 354 351 348 346 345 345